Overview Statistics Trail Chart Weather Telemetry Raw packets
 

This is the latest recevied weather packets stored in our database for station/object N7BTW-13. If no packets are shown the sender has not sent any weather packets the latest 10 day(s).

<< 15 16 17 18 19 20 21 >>
Time Temp. Humidity Pressure Rain* Wind** Luminosity Snow
1788394207 17.78° C 83% - 0 mm - - -
1788393607 18.33° C 82% - 0 mm - - -
1788393007 18.33° C 86% - 0 mm - - -
1788392409 18.33° C 88% - 0 mm - - -
1788391810 17.22° C 92% - 0.25 mm - - -
1788391207 16.67° C 95% - 0.25 mm - - -
1788390607 16.11° C 96% - 0.25 mm - - -
1788390007 15.56° C 97% - 0.25 mm - - -
1788389407 15.56° C 98% - 0.25 mm - - -
1788388805 15.56° C 99% - 0.25 mm - - -
1788388206 15.56° C 98% - 0 mm - - -
1788387608 15.56° C 96% - 0 mm - - -
1788387008 15.56° C 96% - 0 mm - - -
1788386408 15.56° C 96% - 0 mm - - -
1788385807 15.56° C 96% - 0.25 mm - - -
1788385206 15.56° C 95% - 0.25 mm - - -
1788384606 15.56° C 96% - 0.25 mm - - -
1788384005 15.56° C 97% - 0.51 mm - - -
1788383406 15° C 97% - 0.51 mm - - -
1788382809 15° C 98% - 0.51 mm - - -
1788382209 15° C 97% - 0.25 mm - - -
1788381609 15° C 97% - 0.25 mm - - -
1788381007 15° C 97% - 0.25 mm - - -
1788380408 15° C 96% - 0.25 mm - - -
1788379805 15° C 97% - 0.25 mm - - -

* Rain latest hour (hover to see other rain measurements)
** Current wind speed in m/s (hover to see current wind gust speed)